When you browse on this site, cookies collect data to enhance your experience and personalize the content and advertising you see.
Visit our Privacy Policy to learn more. By continuing to use the site, you agree to this use of cookies and data.
  • In Lithuania
  • List of Countries
  • For 7 days
  • Water Temperature
  • Weather Map
  • Weather Widgets
  • user-avatar
    Login

    Hourly Weather Tarin Kowt

    Today, 10 December, Tuesday

    Time Temperature Precipitation Wind Pressure Humidity
    00:00 +9°C° 0.2 mm 1 mps 617 mmHg 61%
    01:00 +8°C° 0.2 mm 1 mps 617 mmHg 64%
    02:00 +8°C° 0.3 mm 1 mps 617 mmHg 65%
    03:00 +8°C° 0.3 mm 1 mps 616 mmHg 67%
    04:00 +8°C° 0.3 mm 1 mps 616 mmHg 68%
    05:00 +8°C° 0.1 mm 1 mps 616 mmHg 69%
    06:00 +8°C° 0.1 mm 1 mps 617 mmHg 69%
    07:00 +8°C° 0.1 mm 1 mps 617 mmHg 69%
    08:00 +8°C° 0.3 mm 1 mps 617 mmHg 69%
    09:00 +7°C° 0.3 mm 2 mps 617 mmHg 68%
    10:00 +7°C° 0.3 mm 3 mps 617 mmHg 68%
    11:00 +8°C° 0.1 mm 2 mps 617 mmHg 67%
    12:00 +8°C° 0.1 mm 2 mps 616 mmHg 66%
    13:00 +9°C° 0.1 mm 2 mps 616 mmHg 65%
    14:00 +10°C° 0.1 mm 1 mps 616 mmHg 64%
    15:00 +10°C° 0.1 mm 1 mps 615 mmHg 64%
    16:00 +10°C° 0.1 mm 1 mps 615 mmHg 64%
    17:00 +9°C° 0.1 mm 1 mps 615 mmHg 68%
    18:00 +9°C° 0.1 mm 1 mps 615 mmHg 72%
    19:00 +7°C° 0.1 mm 0 mps 615 mmHg 76%
    20:00 +7°C° 0.1 mm 0 mps 615 mmHg 78%
    21:00 +6°C° 0.1 mm 0 mps 615 mmHg 80%
    22:00 +6°C° 0.1 mm 0 mps 615 mmHg 82%
    23:00 +6°C° 0 mm 0 mps 615 mmHg 83%

    Tomorrow, 11 December, Wednesday

    Time Temperature Precipitation Wind Pressure Humidity
    00:00 +5°C° 0 mm 0 mps 614 mmHg 84%
    01:00 +5°C° 0 mm 0 mps 614 mmHg 85%
    02:00 +5°C° 0 mm 0 mps 614 mmHg 86%
    03:00 +5°C° 0 mm 1 mps 613 mmHg 86%
    04:00 +5°C° 0 mm 1 mps 613 mmHg 86%
    05:00 +5°C° 0 mm 1 mps 614 mmHg 86%
    06:00 +5°C° 0 mm 1 mps 614 mmHg 86%
    07:00 +5°C° 0 mm 1 mps 614 mmHg 86%
    08:00 +6°C° 0 mm 1 mps 615 mmHg 78%
    09:00 +7°C° 0 mm 1 mps 615 mmHg 71%
    10:00 +9°C° 0 mm 1 mps 615 mmHg 64%
    11:00 +9°C° 0 mm 1 mps 615 mmHg 58%
    12:00 +10°C° 0 mm 1 mps 614 mmHg 53%
    13:00 +10°C° 0 mm 1 mps 614 mmHg 48%
    14:00 +10°C° 0 mm 1 mps 613 mmHg 49%
    15:00 +9°C° 0 mm 2 mps 613 mmHg 50%
    16:00 +9°C° 0 mm 2 mps 613 mmHg 51%
    17:00 +8°C° 0.2 mm 2 mps 613 mmHg 57%
    18:00 +8°C° 0.2 mm 1 mps 613 mmHg 62%
    19:00 +8°C° 0.2 mm 1 mps 613 mmHg 68%
    20:00 +7°C° 0.2 mm 1 mps 612 mmHg 69%
    21:00 +6°C° 0.2 mm 2 mps 612 mmHg 70%
    22:00 +5°C° 0.2 mm 2 mps 612 mmHg 70%
    23:00 +5°C° 0.3 mm 2 mps 611 mmHg 74%

    Day after tomorrow, 12 December, Thursday

    Time Temperature Precipitation Wind Pressure Humidity
    00:00 +4°C° 0.3 mm 2 mps 611 mmHg 77%
    01:00 +5°C° 0.3 mm 1 mps 611 mmHg 80%
    02:00 +5°C° 0 mm 1 mps 611 mmHg 80%
    03:00 +5°C° 0 mm 1 mps 611 mmHg 81%
    04:00 +5°C° 0 mm 1 mps 610 mmHg 81%
    05:00 +5°C° 0 mm 1 mps 611 mmHg 81%
    06:00 +5°C° 0 mm 1 mps 611 mmHg 81%
    07:00 +5°C° 0 mm 1 mps 611 mmHg 81%
    08:00 +5°C° 0 mm 1 mps 611 mmHg 80%
    09:00 +5°C° 0 mm 1 mps 611 mmHg 80%
    10:00 +5°C° 0 mm 2 mps 611 mmHg 80%
    11:00 +5°C° 0.2 mm 2 mps 611 mmHg 77%
    12:00 +5°C° 0.2 mm 2 mps 610 mmHg 75%
    13:00 +6°C° 0.2 mm 2 mps 610 mmHg 72%
    14:00 +5°C° 0.3 mm 3 mps 610 mmHg 70%
    15:00 +5°C° 0.3 mm 3 mps 610 mmHg 68%
    16:00 +5°C° 0.3 mm 4 mps 610 mmHg 66%
    17:00 +5°C° 0.3 mm 3 mps 610 mmHg 67%
    18:00 +4°C° 0.3 mm 3 mps 610 mmHg 68%
    19:00 +4°C° 0.3 mm 3 mps 611 mmHg 69%
    20:00 +5°C° 0 mm 2 mps 611 mmHg 71%
    21:00 +4°C° 0 mm 2 mps 611 mmHg 74%
    22:00 +5°C° 0 mm 1 mps 611 mmHg 76%
    23:00 +4°C° 0 mm 1 mps 611 mmHg 78%

    13 December, Friday

    Time Temperature Precipitation Wind Pressure Humidity
    00:00 +4°C° 0 mm 1 mps 611 mmHg 79%
    01:00 +4°C° 0 mm 1 mps 611 mmHg 80%
    02:00 +3°C° 0 mm 1 mps 611 mmHg 80%
    03:00 +2°C° 0 mm 0 mps 611 mmHg 80%
    04:00 +2°C° 0 mm 0 mps 611 mmHg 79%
    05:00 +2°C° 0 mm 0 mps 612 mmHg 79%
    06:00 +1°C° 0 mm 0 mps 612 mmHg 78%
    07:00 +1°C° 0 mm 0 mps 613 mmHg 78%
    08:00 +2°C° 0 mm 0 mps 613 mmHg 73%
    09:00 +3°C° 0 mm 0 mps 614 mmHg 67%
    10:00 +4°C° 0 mm 0 mps 614 mmHg 62%
    11:00 +6°C° 0 mm 1 mps 614 mmHg 59%
    12:00 +6°C° 0 mm 1 mps 614 mmHg 56%
    13:00 +6°C° 0 mm 2 mps 614 mmHg 53%
    14:00 +6°C° 0 mm 2 mps 614 mmHg 54%
    15:00 +5°C° 0 mm 2 mps 614 mmHg 54%
    16:00 +5°C° 0 mm 2 mps 614 mmHg 55%
    17:00 +6°C° 0 mm 1 mps 614 mmHg 59%
    18:00 +5°C° 0 mm 1 mps 615 mmHg 63%
    19:00 +5°C° 0 mm 1 mps 615 mmHg 67%
    20:00 +5°C° 0 mm 1 mps 615 mmHg 68%
    21:00 +3°C° 0 mm 0 mps 615 mmHg 69%
    22:00 +3°C° 0 mm 0 mps 615 mmHg 71%
    23:00 +4°C° 0 mm 1 mps 615 mmHg 70%

    14 December, Saturday

    Time Temperature Precipitation Wind Pressure Humidity
    00:00 +4°C° 0 mm 1 mps 615 mmHg 70%
    01:00 +4°C° 0 mm 1 mps 615 mmHg 69%
    02:00 +4°C° 0 mm 1 mps 615 mmHg 68%
    03:00 +3°C° 0 mm 1 mps 614 mmHg 67%
    04:00 +2°C° 0 mm 2 mps 614 mmHg 66%
    05:00 +3°C° 0 mm 1 mps 614 mmHg 65%
    06:00 +3°C° 0 mm 1 mps 614 mmHg 64%
    07:00 +3°C° 0 mm 1 mps 615 mmHg 63%
    08:00 +3°C° 0.2 mm 1 mps 615 mmHg 63%
    09:00 +3°C° 0.2 mm 2 mps 615 mmHg 63%
    10:00 +3°C° 0.2 mm 2 mps 616 mmHg 63%
    11:00 +1°C° 0.7 mm 3 mps 615 mmHg 73%
    12:00 +1°C° 0.7 mm 3 mps 614 mmHg 83%
    13:00 0°C° 0.7 mm 3 mps 614 mmHg 93%
    14:00 0°C° 0.4 mm 3 mps 614 mmHg 93%
    15:00 0°C° 0.4 mm 3 mps 614 mmHg 93%
    16:00 +1°C° 0.4 mm 2 mps 614 mmHg 93%
    17:00 +1°C° 0.3 mm 2 mps 615 mmHg 93%
    18:00 +1°C° 0.3 mm 2 mps 615 mmHg 93%
    19:00 +2°C° 0.3 mm 2 mps 616 mmHg 93%
    20:00 +2°C° 0.1 mm 2 mps 616 mmHg 92%
    21:00 +2°C° 0.1 mm 2 mps 616 mmHg 90%
    22:00 +3°C° 0.1 mm 1 mps 617 mmHg 89%
    23:00 +2°C° 0 mm 2 mps 617 mmHg 88%

    15 December, Sunday

    Time Temperature Precipitation Wind Pressure Humidity
    00:00 +2°C° 0 mm 2 mps 617 mmHg 87%
    01:00 +3°C° 0 mm 2 mps 617 mmHg 87%
    02:00 +2°C° 0 mm 2 mps 617 mmHg 87%
    03:00 +2°C° 0 mm 2 mps 617 mmHg 87%
    04:00 +3°C° 0 mm 1 mps 616 mmHg 87%
    05:00 +2°C° 0 mm 2 mps 617 mmHg 86%
    06:00 +2°C° 0 mm 2 mps 617 mmHg 86%
    07:00 +2°C° 0 mm 2 mps 617 mmHg 85%
    08:00 +3°C° 0 mm 2 mps 617 mmHg 79%
    09:00 +4°C° 0 mm 2 mps 618 mmHg 72%
    10:00 +5°C° 0 mm 2 mps 618 mmHg 65%
    11:00 +5°C° 0 mm 2 mps 618 mmHg 62%
    12:00 +6°C° 0 mm 2 mps 617 mmHg 58%
    13:00 +7°C° 0 mm 2 mps 617 mmHg 54%
    14:00 +7°C° 0 mm 2 mps 617 mmHg 54%
    15:00 +7°C° 0 mm 2 mps 617 mmHg 55%
    16:00 +7°C° 0 mm 2 mps 617 mmHg 55%
    17:00 +6°C° 0 mm 2 mps 617 mmHg 58%
    18:00 +5°C° 0 mm 2 mps 617 mmHg 60%
    19:00 +5°C° 0 mm 2 mps 617 mmHg 63%
    20:00 +4°C° 0 mm 2 mps 617 mmHg 64%
    21:00 +4°C° 0 mm 2 mps 617 mmHg 64%
    22:00 +4°C° 0 mm 2 mps 617 mmHg 65%
    23:00 +3°C° 0 mm 2 mps 617 mmHg 64%
    Show more